Regional Weather Roundup
Issued by NWS

Home | Current Version | Previous Version | Text Only | Print | Product List | Glossary On
Versions: 1 2 3 4 5 6 7 8 9 10 11 12 13 14 15 16 17 18 19 20 21 22 23 24 25 26 27 28 29 30 31 32 33 34 35 36 37 38 39 40 41 42 43 44 45 46 47 48 49 50
000
ASUS43 KMPX 222310
RWRMN
WEATHER ROUNDUP FOR MINNESOTA
NATIONAL WEATHER SERVICE TWIN CITIES/CHANHASSEN MN
600 PM CDT TUE JUL 22 2014


NOTE: "FAIR" INDICATES FEW OR NO CLOUDS BELOW 12,000 FEET WITH NO
SIGNIFICANT WEATHER AND/OR OBSTRUCTIONS TO VISIBILITY. N/A MEANS
CURRENT SKY AND/OR WEATHER CONDITIONS ARE NOT AVAILABLE.

MNZ060>063-068>070-230000-
   Twin Cities Metro

CITY           SKY/WX    TMP DP  RH WIND       PRES   REMARKS
TWIN CITIES    MOSUNNY   83  59  44 NW10      30.07R
ST PAUL        MOSUNNY   81  59  47 N9        30.06R
CRYSTAL        SUNNY     84  55  36 NW14      30.06R
BLAINE         MOSUNNY   82  61  47 N13       30.07R
LAKEVILLE      SUNNY     81  61  50 NW12G18   30.07R
EDEN PRAIRIE   SUNNY     83  58  42 NW14      30.07R
SOUTH ST PAUL  MOSUNNY   83  55  38 N8G16     30.06R
LAKE ELMO      FAIR      79  61  53 NW9       30.08R
$$
MNZ001>005-007-008-013>017-022>024-027-028-230000-
   Northwest Minnesota

CITY           SKY/WX    TMP DP  RH WIND       PRES   REMARKS
BEMIDJI        SUNNY     75  51  44 NW15      30.15R
HALLOCK        SUNNY     75  52  43 NW12      30.17R
ROSEAU         SUNNY     73  57  56 N9        30.15S
WARROAD        MOSUNNY   75  55  50 NW14G21   30.15R
THIEF RVR FALL MOSUNNY   73  54  49 NW13      30.17S
CROOKSTON      SUNNY     75  55  50 N13       30.18S
FOSSTON        MOSUNNY   73  55  53 N12       30.18R
DETROIT LAKES  SUNNY     73  55  53 N9G22     30.18S
MOORHEAD       MOSUNNY   75  63  64 N10       30.18R
PARK RAPIDS    SUNNY     75  51  43 NW15G22   30.15R
$$
MNZ006-009>011-018-025>026-230000-
   North Central Minnesota

CITY           SKY/WX    TMP DP  RH WIND       PRES   REMARKS
BAUDETTE       SUNNY     75  52  44 NW12      30.14R
FLAG ISLAND    SUNNY     73  54  49 N20       30.12R
INTL FALLS     MOSUNNY   74  52  46 NW13      30.10R
WASKISH        PTSUNNY   73  55  53 N8        30.14R
BIG FORK       MOSUNNY   75  52  43 N7        30.13R
LONGVILLE      MOSUNNY   73  54  49 NW5G17    30.13R
GRAND RAPIDS   CLOUDY    75  52  43 N14       30.11R
CRANE LAKE     CLOUDY    72  52  49 N6G16     30.11R
ORR            SUNNY     73  46  38 NW6       30.09R
COOK           MOSUNNY   73  54  49 N7        30.11R
$$
MNZ012-019>021-037-230000-
   Northeast Minnesota

CITY           SKY/WX    TMP DP  RH WIND       PRES   REMARKS
DULUTH         MOSUNNY   77  55  46 N10       30.08R
ELY            MOSUNNY   72  50  46 N8G18     30.09R
HIBBING        MOSUNNY   76  54  46 N10       30.10R
DULUTH HARBOR  MOSUNNY   72  57  60 N13       30.06R
TWO HARBORS    MOSUNNY   73  55  53 N10       30.05R
SILVER BAY     SUNNY     73  57  56 N7        30.05R
GRAND MARAIS     N/A     74  54  49 VRB5      30.03R
G MARAIS ARPRT PTSUNNY   66  50  55 NW6G16    30.08R
$$
MNZ029>031-032-039>041-046>048-054>057-064-230000-
   West Central Minnesota

CITY           SKY/WX    TMP DP  RH WIND       PRES   REMARKS
FERGUS FALLS   SUNNY     75  54  46 N9G20     30.16R
WHEATON        SUNNY     75  57  53 N12       30.19S
MORRIS         SUNNY     77  57  50 N15       30.17R
ALEXANDRIA     SUNNY     77  54  44 N9        30.18R
ELBOW LAKE     FAIR      75  57  54 N17       30.17R
WADENA         SUNNY     73  54  49 NW10G18   30.15R
GLENWOOD       SUNNY     77  55  47 NW14      30.17R
APPLETON       SUNNY     81  52  36 N13       30.16S
BENSON         SUNNY     79  55  44 N14       30.16R
ORTONVILLE     SUNNY     79  55  44 N10       30.18R
MADISON        SUNNY     81  57  44 N14       30.17S
WILLMAR        FAIR      81  52  36 N13       30.16R
$$
MNZ033>034-036-042>043-049>051-058-059-230000-
   Central Minnesota

CITY           SKY/WX    TMP DP  RH WIND       PRES   REMARKS
ST CLOUD       MOSUNNY   82  53  36 NW12      30.10R
SAUK CENTRE    FAIR      78  52  40 NW15      30.15R
PAYNESVILLE    HVY RAIN  77  52  42 W12       30.14R
AITKIN         SUNNY     77  55  47 N10       30.10R
PINE RIVER     SUNNY     75  55  50 N9G20     30.16R
BRAINERD       MOSUNNY   76  52  43 N14       30.12R
STAPLES        SUNNY     75  46  35 NW12G18   30.14R
LONG PRAIRIE   FAIR      77  52  41 NW15      30.15R
LITTLE FALLS   MOSUNNY   79  46  31 NW8G17    30.12R
LITCHFIELD     SUNNY     81  54  39 N14       30.13R
BUFFALO        SUNNY     81  51  34 NW12      30.11R
MAPLE LAKE     SUNNY     81  56  41 N9        30.12R
$$
MNZ037-044-045-052-053-230000-
   East Central Minnesota

CITY           SKY/WX    TMP DP  RH WIND       PRES   REMARKS
PRINCETON      MOSUNNY   81  55  41 NW9       30.10R
MORA           PTSUNNY   75  54  46 NW13      30.10R
CAMBRIDGE      MOSUNNY   81  61  50 NW9       30.07R
RUSH CITY      MOSUNNY   77  59  53 NW8       30.08R
MOOSE LAKE     MOSUNNY   77  55  47 N9        30.06R
HINCKLEY       FAIR      77  61  57 NW7       30.08R
CLOQUET        MOSUNNY   75  52  43 N14       30.08R
MCGREGOR       SUNNY     75  55  50 N12       30.10R
$$
MNZ071>073-080-081-089-090-097-098-230000-
   Southwest Minnesota

CITY           SKY/WX    TMP DP  RH WIND       PRES   REMARKS
MONTEVIDEO     SUNNY     81  57  44 N12       30.17R
GRANITE FALLS  SUNNY     79  55  44 NW9       30.17R
CANBY          SUNNY     80  53  39 N10G16    30.19S
MARSHALL       SUNNY     79  54  41 N16       30.16R
REDWOOD FALLS  SUNNY     82  56  40 NW10      30.13R
OLIVIA         SUNNY     79  54  41 NW14      30.13R
PIPESTONE      SUNNY     79  57  47 NE10      30.19R
WINDOM         SUNNY     81  54  39 NW10G22   30.15R
WORTHINGTON    SUNNY     79  59  50 N15       30.18R
JACKSON        SUNNY     81  55  41 NW10G20   30.15R
TRACY          SUNNY     79  58  49 N9        30.16S
SLAYTON        SUNNY     78  54  42 N13G20    30.19R
$$
MNZ065>067-074>077-082>085-091>093-230000-
   South Central Minnesota

CITY           SKY/WX    TMP DP  RH WIND       PRES   REMARKS
MANKATO        SUNNY     82  57  42 NW16      30.10R
NEW ULM        SUNNY     81  57  44 NW17      30.11R
ST JAMES       SUNNY     82  55  39 NW12G17   30.12S
FAIRMONT       SUNNY     82  61  47 NW13G18   30.11S
GLENCOE        SUNNY     82  51  34 NW14      30.10R
FARIBAULT      SUNNY     84  55  37 NW7       30.09R
OWATONNA       SUNNY     82  61  47 NW15      30.09R
WASECA         SUNNY     79  54  41 NW12      30.11R
ALBERT LEA     SUNNY     81  63  54 NW8       30.09R
$$
MNZ078>079-086>088-094>096-230000-
   Southeast Minnesota

CITY           SKY/WX    TMP DP  RH WIND       PRES   REMARKS
ROCHESTER      MOSUNNY   80  64  58 NW14      30.08R
RED WING       MOSUNNY   84  59  42 NW7       30.04R
STANTON        PTSUNNY   84  60  45 N10       30.05R
DODGE CENTER   SUNNY     81  64  57 NW12      30.08R
WINONA         SUNNY     82  64  54 N13G20    30.02R
AUSTIN         MOSUNNY   82  63  51 NW13      30.07R
PRESTON        SUNNY     79  71  74 NW14      30.06R
$$
ABBREVIATIONS USED IN REMARKS
   TC - TEMPERATURES IN CELSIUS
  WCI - WIND CHILL INDEX
   HX - HEAT INDEX
  VSB - VISIBILITY
$$



USA.gov is the U.S. government's official web portal to all federal, state and local government web resources and services.